Regional Weather Roundup
Issued by NWS

Home | Current Version | Previous Version | Text Only | Print | Product List | Glossary Off
Versions: 1 2 3 4 5 6 7 8 9 10 11 12 13 14 15 16 17 18 19 20 21 22 23 24 25 26 27 28 29 30 31 32 33 34 35 36 37 38 39 40 41 42 43 44 45 46 47 48 49 50

000
ASUS43 KMKX 280311
RWRWI

WISCONSIN REGIONAL WEATHER ROUNDUP
NATIONAL WEATHER SERVICE MILWAUKEE/SULLIVAN WI
1000 PM CDT SAT AUG 27 2016

NOTE: "FAIR" INDICATES FEW OR NO CLOUDS BELOW 12,000 FEET WITH NO
SIGNIFICANT WEATHER AND/OR OBSTRUCTIONS TO VISIBILITY.

WIZ001-002-006>008-014>016-023>028-280400-
NORTHWEST WISCONSIN

CITY           SKY/WX    TMP DP  RH WIND       PRES   REMARKS
SUPERIOR ARPT  DRIZZLE   61  60  98 CALM      30.05R
ASHLAND        LGT RAIN  62  62 100 N3        30.06R
HAYWARD        LGT RAIN  62  61  96 S3        30.06S FOG
SIREN          CLOUDY    63  62  97 CALM      30.06R
CUMBERLAND     CLOUDY    61  61 100 CALM      30.08R
RICE LAKE      CLOUDY    64  62  94 CALM      30.08R FOG
CHETEK         NOT AVBL
LADYSMITH      CLOUDY    64  62  96 S3        30.08R
EAU CLAIRE     CLOUDY    66  65  96 SW3       30.06R
MENOMONIE      CLOUDY    65  65  97 S3        30.06R
NEW RICHMOND   CLOUDY    63  63 100 CALM      30.07R
OSCEOLA        CLOUDY    64  64 100 CALM      30.09R
$$

WIZ003>005-009-010-017-018-280400-
NORTH CENTRAL WISCONSIN

CITY           SKY/WX    TMP DP  RH WIND       PRES   REMARKS
MANITOWISH WTR NOT AVBL
ARBOR VITAE    CLOUDY    62  61  96 SW7       30.08R
WOODRUFF       CLOUDY    62  61  96 SW7       30.08R
RHINELANDER    CLOUDY    62  62 100 SW5       30.09R FOG
EAGLE RIVER    LGT RAIN  61  61 100 CALM      30.08R
LAND O LAKES   CLOUDY    62  60  96 CALM      30.09R
PHILLIPS       CLOUDY    61  61 100 S3        30.07R
TOMAHAWK       CLOUDY    61  60  96 CALM      30.09R FOG
MEDFORD        CLOUDY    62  62 100 S5        30.08S FOG
MERRILL        CLOUDY    63  63  99 S5        30.09R
$$

WIZ029-030-035-036-043>047-280400-
CENTRAL WISCONSIN

CITY           SKY/WX    TMP DP  RH WIND       PRES   REMARKS
WAUSAU         CLOUDY    63  62  97 S7        30.07R FOG
MOSINEE        DRIZZLE   63  63 100 SE5       30.10R FOG
MARSHFIELD     CLOUDY    64  62  93 S5        30.08R FOG
STEVENS POINT  CLOUDY    62  62 100 CALM      30.10R FOG
WAUPACA        CLOUDY    66  65  97 CALM      30.09R FOG
WAUTOMA        CLOUDY    65  64  97 CALM      30.10R
WISC RAPIDS    CLOUDY    64  64 100 CALM      30.10R
CAMP DOUGLAS   CLOUDY    65  65  99 SE1       30.08R
$$

WIZ011>013-019>022-031-037>040-048>050-280400-
NORTHEAST WISCONSIN

CITY           SKY/WX    TMP DP  RH WIND       PRES   REMARKS
ANTIGO         DRIZZLE   61  61 100 CALM      30.10R
SHAWANO        CLOUDY    66  63  90 CALM      30.08R
OCONTO         NOT AVBL
STURGEON BAY   CLOUDY    64  63  96 W3        30.06S
GREEN BAY      CLOUDY    64  64 100 CALM      30.07R
MANITOWOC      CLOUDY    64  62  93 CALM      30.07S FOG
APPLETON       CLOUDY    64  64 100 CALM      30.05R
CLINTONVILLE   CLOUDY    63  63 100 W3        30.08R FOG
OSHKOSH        CLOUDY    65  64  97 CALM      30.07R FOG
$$

WIZ032>034-041-042-053>061-280400-
SOUTHWEST WISCONSIN

CITY           SKY/WX    TMP DP  RH WIND       PRES   REMARKS
LA CROSSE      MOCLDY    68  67  96 SE3       30.06R
SPARTA         CLOUDY    64  64  99 CALM      30.09R
VIROQUA        CLOUDY    65  65 100 CALM      30.09R VSB 1/4
BOSCOBEL       FOG       64  63  96 CALM      30.08R VSB 1/4
PRAIRIE DU CHI CLEAR     66  64  94 CALM      30.07R
PLATTEVILLE    CLEAR     65  65 100 N5        30.09R
$$

WIZ056-057-062-063-064-067-068-280400-
SOUTH CENTRAL WISCONSIN

CITY           SKY/WX    TMP DP  RH WIND       PRES   REMARKS
REEDSBURG      NOT AVBL
BARABOO/DELLS  CLOUDY    65  63  94 CALM      30.09R FOG
LONE ROCK      MOCLDY    63  62  97 CALM      30.09R FOG
MINERAL POINT  CLEAR     68  68 100 CALM      30.10R
MADISON        PTCLDY    66  65  96 CALM      30.08R FOG
MIDDLETON      CLOUDY    64  64 100 CALM      30.09R VSB 1/4
WATERTOWN      CLEAR     66  66 100 CALM      30.08R
MONROE         CLEAR     68  68 100 N5        30.09R
JANESVILLE     NOT AVBL
$$

WIZ051-052-058>065-066-070>072-280400-
SOUTHEAST WISCONSIN

CITY           SKY/WX    TMP DP  RH WIND       PRES   REMARKS
MILWAUKEE      MOCLDY    69  66  90 CALM      30.07R
WAUKESHA       MOCLDY    70  66  88 NW6       30.10R
MILWAUKEE/TIMM CLOUDY    70  66  88 CALM      30.08R
RACINE         CLOUDY    74  70  87 SW8       30.08R
BURLINGTON     PTCLDY    66  65  97 CALM      30.09R
KENOSHA        CLOUDY    74  70  87 SW7       30.08R
FOND DU LAC    CLOUDY    65  64  97 SW3       30.08R FOG
SHEBOYGAN      FOG       65  63  93 CALM      30.07S VSB 1/2
WEST BEND      PTCLDY    68  64  88 CALM      30.08R
JUNEAU         FOG       64  64  99 CALM      30.10R VSB 1/4
$$

LSZ147-162-280400-
LAKE SUPERIOR

STATION/POSITION TIME  TEMP    WIND        PRES    WAVE
                       AIR SEA DIR/SP/G            HT/PER
                 (UTC) (F)     (DEG/KT/KT) (MB)    (FT/S)
W MID LAKE BUOY  0250   65 67   30/  4/  6 1017.0R   1/ 3
DEVILS ISLAND    0300   61      80/  5/  7 1017.9F
PORT WING        0200   62      80/  1/  2 1017.6R
SAXON HARBOR     0240   63      CALM  /  2 1016.9R
$$

LMZ867-665-643>646-280400-
LAKE MICHIGAN

STATION/POSITION TIME  TEMP    WIND        PRES    WAVE
                       AIR SEA DIR/SP/G            HT/PER
                 (UTC) (F)     (DEG/KT/KT) (MB)    (FT/S)
CHAMBERS ISLAND  0200   64      CALM  /  1 1017.3R
S GREEN BAY BUOY 0100   65 71   80/  4/  6 1017.0
N MID LAKE BUOY  0250   67 70   30/  2/  2 1016.3F   1
NORTHPORT PIER   0200   66      30/  1/  3 1017.3R
SISTER BAY       0207   64        CALM       N/A
KEWAUNEE LAKESHO 0200   64      CALM  /  3 1017.2R
SHEBOYGAN LAKESH 0300   63     340/  5/  5 1018.0R
PORT WASHINGTON  0240   66     310/  2/  4 1018.6R
ATWATER BUOY     0300   63     350/  4/  6   N/A
MILWAUKEE LAKESH 0210   66      30/  6/  6   N/A
S MID LAKE BUOY  0250   76 75  220/ 19/ 25 1017.1R   1
KENOSHA   LAKESH 0300   76     220/  7/  9 1017.9R
$$

TC  - TEMPERATURE IN CELSIUS
VSB - VISIBILITY IN STATUTE MILES
WCI - WIND CHILL INDEX
HX  - HEAT INDEX





USA.gov is the U.S. government's official web portal to all federal, state and local government web resources and services.